TRA91J LGPZ-EHAM

Flight info

Callsign TRA91J
Flight time 2h 39m
Altitude 36000
Route MALED UM127 KRK UL53 OLGAT DCT CRAYE DCT GISAM DCT DARZA DCT INGID DCT SIMBA DCT GASKA DCT MAPOX DCT NORKU
Aircraft A21N/M-SDE2E3FGHIRWXY/LB1

Departure

Time 2026-05-07 18:38
Airport Aktion National Airport (LGPZ)

Arrival

Time 2026-05-07 21:17
Airport Amsterdam Airport Schiphol (EHAM)
Time Latitude Longitude Altitude Speed Heading
2026-05-07 17:44 38.93023 20.77242 24 ft 0 kts 340°
2026-05-07 18:27 38.93009 20.77249 24 ft 4 kts 338°
2026-05-07 18:27 38.92984 20.77261 24 ft 4 kts 345°
2026-05-07 18:27 38.92958 20.77264 24 ft 4 kts 11°
2026-05-07 18:28 38.92936 20.77251 24 ft 4 kts 52°
2026-05-07 18:28 38.92929 20.77238 24 ft 1 kts 64°
2026-05-07 18:28 38.92929 20.77236 24 ft 0 kts 64°
2026-05-07 18:32 38.92931 20.77241 24 ft 2 kts 64°
2026-05-07 18:32 38.92940 20.77266 24 ft 5 kts 67°
2026-05-07 18:33 38.92955 20.77312 24 ft 7 kts 67°
2026-05-07 18:33 38.92974 20.77375 24 ft 9 kts 81°
2026-05-07 18:33 38.92929 20.77427 23 ft 10 kts 162°
2026-05-07 18:33 38.92877 20.77488 22 ft 12 kts 96°
2026-05-07 18:34 38.92894 20.77567 22 ft 8 kts 69°
2026-05-07 18:34 38.92917 20.77639 23 ft 10 kts 68°
2026-05-07 18:34 38.92928 20.77729 23 ft 12 kts 117°
2026-05-07 18:34 38.92860 20.77784 24 ft 10 kts 157°
2026-05-07 18:35 38.92844 20.77871 25 ft 12 kts 70°
2026-05-07 18:35 38.92876 20.77975 25 ft 11 kts 68°
2026-05-07 18:35 38.92907 20.78074 25 ft 13 kts 68°
2026-05-07 18:35 38.92970 20.78088 25 ft 13 kts 321°
2026-05-07 18:36 38.93019 20.78018 25 ft 7 kts 309°
2026-05-07 18:36 38.93017 20.77955 25 ft 6 kts 248°
2026-05-07 18:36 38.93009 20.77930 24 ft 0 kts 248°
2026-05-07 18:37 38.93000 20.77901 24 ft 22 kts 248°
2026-05-07 18:37 38.92845 20.77411 22 ft 94 kts 249°
2026-05-07 18:37 38.92525 20.76391 26 ft 150 kts 248°
2026-05-07 18:37 38.92101 20.75049 334 ft 164 kts 247°
2026-05-07 18:38 38.91719 20.73682 935 ft 166 kts 257°
2026-05-07 18:38 38.91683 20.72148 1380 ft 180 kts 279°
2026-05-07 18:38 38.91930 20.70480 1946 ft 198 kts 277°
2026-05-07 18:38 38.92109 20.68614 2461 ft 223 kts 276°
2026-05-07 18:39 38.92294 20.66590 3216 ft 233 kts 276°
2026-05-07 18:39 38.92550 20.64485 3983 ft 248 kts 288°
2026-05-07 18:39 38.93493 20.62553 4550 ft 266 kts 314°
2026-05-07 18:39 38.94901 20.60960 5351 ft 273 kts 319°
2026-05-07 18:40 38.96371 20.59382 6193 ft 277 kts 319°
2026-05-07 18:40 38.97848 20.57773 7017 ft 281 kts 319°
2026-05-07 18:40 38.99347 20.56130 7817 ft 284 kts 319°
2026-05-07 18:40 39.00856 20.54456 8598 ft 288 kts 318°
2026-05-07 18:41 39.02380 20.52750 9349 ft 292 kts 318°
2026-05-07 18:41 39.03920 20.51012 10079 ft 296 kts 318°
2026-05-07 18:41 39.05504 20.49213 10518 ft 312 kts 318°
2026-05-07 18:41 39.07172 20.47325 10873 ft 327 kts 318°
2026-05-07 18:42 39.08914 20.45342 11249 ft 341 kts 318°
2026-05-07 18:42 39.10721 20.43290 11707 ft 350 kts 318°
2026-05-07 18:42 39.12557 20.41207 12301 ft 354 kts 318°
2026-05-07 18:42 39.14386 20.39125 12884 ft 357 kts 318°
2026-05-07 18:43 39.16257 20.36995 13444 ft 360 kts 318°
2026-05-07 18:43 39.18143 20.34841 13975 ft 364 kts 318°
2026-05-07 18:43 39.20041 20.32674 14473 ft 367 kts 318°
2026-05-07 18:43 39.21965 20.30488 14952 ft 370 kts 319°
2026-05-07 18:44 39.23972 20.28377 15414 ft 373 kts 321°
2026-05-07 18:44 39.26009 20.26281 15852 ft 376 kts 321°
2026-05-07 18:44 39.28067 20.24167 16274 ft 379 kts 321°
2026-05-07 18:44 39.30134 20.22034 16675 ft 382 kts 321°
2026-05-07 18:45 39.32214 20.19887 17062 ft 384 kts 321°
2026-05-07 18:45 39.34306 20.17726 17426 ft 387 kts 321°
2026-05-07 18:45 39.36423 20.15538 17774 ft 389 kts 321°
2026-05-07 18:45 39.38540 20.13348 18103 ft 391 kts 320°
2026-05-07 18:46 39.40662 20.11126 18420 ft 394 kts 321°
2026-05-07 18:46 39.42813 20.08877 18759 ft 398 kts 321°
2026-05-07 18:46 39.44908 20.06524 19105 ft 400 kts 315°
2026-05-07 18:46 39.46861 20.03970 19419 ft 400 kts 314°
2026-05-07 18:47 39.48827 20.01374 19737 ft 405 kts 314°
2026-05-07 18:47 39.50768 19.98799 20046 ft 406 kts 315°
2026-05-07 18:47 39.52751 19.96190 20315 ft 407 kts 314°
2026-05-07 18:47 39.54741 19.93567 20571 ft 408 kts 314°
2026-05-07 18:48 39.56730 19.90941 20788 ft 410 kts 314°
2026-05-07 18:48 39.58746 19.88300 21010 ft 412 kts 314°
2026-05-07 18:48 39.60759 19.85652 21227 ft 414 kts 314°
2026-05-07 18:48 39.62777 19.82984 21436 ft 415 kts 314°
2026-05-07 18:49 39.64804 19.80292 21641 ft 417 kts 314°
2026-05-07 18:49 39.66832 19.77599 21835 ft 418 kts 314°
2026-05-07 18:49 39.68868 19.74891 22031 ft 420 kts 314°
2026-05-07 18:49 39.70905 19.72166 22220 ft 421 kts 314°
2026-05-07 18:50 39.72951 19.69427 22403 ft 422 kts 314°
2026-05-07 18:50 39.75001 19.66687 22585 ft 424 kts 314°
2026-05-07 18:50 39.77063 19.63935 22765 ft 425 kts 314°
2026-05-07 18:50 39.79130 19.61176 22939 ft 427 kts 314°
2026-05-07 18:51 39.81204 19.58401 23101 ft 428 kts 314°
2026-05-07 18:51 39.83280 19.55622 23260 ft 429 kts 314°
2026-05-07 18:51 39.85362 19.52838 23418 ft 430 kts 314°
2026-05-07 18:51 39.87453 19.50039 23571 ft 431 kts 314°
2026-05-07 18:52 39.89544 19.47246 23719 ft 433 kts 314°
2026-05-07 18:52 39.91648 19.44435 23863 ft 434 kts 314°
2026-05-07 18:52 39.93756 19.41607 24012 ft 435 kts 314°
2026-05-07 18:52 39.95863 19.38764 24161 ft 436 kts 314°
2026-05-07 18:53 39.97977 19.35917 24305 ft 437 kts 314°
2026-05-07 18:53 40.00095 19.33063 24446 ft 438 kts 314°
2026-05-07 18:53 40.02215 19.30204 24586 ft 439 kts 314°
2026-05-07 18:53 40.04313 19.27373 24723 ft 440 kts 314°
2026-05-07 18:54 40.06479 19.24448 24867 ft 442 kts 314°
2026-05-07 18:54 40.08583 19.21601 25008 ft 443 kts 313°
2026-05-07 18:54 40.10722 19.18702 25147 ft 444 kts 313°
2026-05-07 18:54 40.12864 19.15785 25285 ft 445 kts 313°
2026-05-07 18:55 40.15015 19.12862 25425 ft 446 kts 314°
2026-05-07 18:55 40.17171 19.09936 25546 ft 447 kts 313°
2026-05-07 18:55 40.19331 19.07001 25657 ft 448 kts 313°
2026-05-07 18:55 40.21498 19.04060 25768 ft 449 kts 313°
2026-05-07 18:56 40.23724 19.01193 25874 ft 450 kts 319°
2026-05-07 18:56 40.26266 18.98792 25987 ft 451 kts 329°
2026-05-07 18:56 40.29022 18.96828 26109 ft 452 kts 332°
2026-05-07 18:56 40.31830 18.94942 26227 ft 453 kts 333°
2026-05-07 18:57 40.34648 18.93065 26345 ft 454 kts 333°
2026-05-07 18:57 40.37463 18.91180 26468 ft 456 kts 332°
2026-05-07 18:57 40.40285 18.89269 26604 ft 457 kts 332°
2026-05-07 18:57 40.43105 18.87349 26722 ft 458 kts 332°
2026-05-07 18:58 40.45942 18.85417 26841 ft 459 kts 332°
2026-05-07 18:58 40.48777 18.83480 26975 ft 460 kts 332°
2026-05-07 18:58 40.51620 18.81533 27118 ft 461 kts 332°
2026-05-07 18:58 40.54436 18.79606 27263 ft 463 kts 332°
2026-05-07 18:59 40.57292 18.77651 27422 ft 464 kts 332°
2026-05-07 18:59 40.60164 18.75683 27596 ft 465 kts 332°
2026-05-07 18:59 40.63039 18.73714 27791 ft 467 kts 332°
2026-05-07 18:59 40.65930 18.71730 28002 ft 469 kts 332°
2026-05-07 19:00 40.68827 18.69741 28234 ft 471 kts 332°
2026-05-07 19:00 40.71737 18.67737 28479 ft 473 kts 332°
2026-05-07 19:00 40.74648 18.65716 28745 ft 475 kts 332°
2026-05-07 19:00 40.77588 18.63689 29058 ft 478 kts 332°
2026-05-07 19:01 40.80540 18.61653 29430 ft 481 kts 332°
2026-05-07 19:01 40.83511 18.59596 29835 ft 484 kts 332°
2026-05-07 19:01 40.86507 18.57507 30216 ft 488 kts 332°
2026-05-07 19:01 40.89518 18.55416 30582 ft 490 kts 332°
2026-05-07 19:02 40.92548 18.53309 30929 ft 494 kts 332°
2026-05-07 19:02 40.95602 18.51198 31267 ft 497 kts 332°
2026-05-07 19:02 40.98666 18.49067 31578 ft 501 kts 332°
2026-05-07 19:02 41.00710 18.47637 31842 ft 501 kts 332°
2026-05-07 19:03 41.03800 18.45493 32305 ft 501 kts 332°
2026-05-07 19:03 41.06891 18.43351 32701 ft 500 kts 331°
2026-05-07 19:03 41.09828 18.41391 33892 ft 452 kts 324°
2026-05-07 19:03 41.12561 18.39588 34028 ft 428 kts 323°
2026-05-07 19:04 41.15205 18.37836 34046 ft 421 kts 323°
2026-05-07 19:04 41.17744 18.36075 34210 ft 404 kts 320°
2026-05-07 19:04 41.20174 18.34237 34478 ft 400 kts 320°
2026-05-07 19:04 41.22599 18.32422 34783 ft 399 kts 320°
2026-05-07 19:05 41.25030 18.30661 35061 ft 398 kts 321°
2026-05-07 19:05 41.27463 18.28935 35338 ft 396 kts 321°
2026-05-07 19:05 41.29904 18.27239 35580 ft 395 kts 321°
2026-05-07 19:05 41.32351 18.25548 35814 ft 394 kts 321°
2026-05-07 19:06 41.34776 18.23857 36028 ft 393 kts 321°
2026-05-07 19:06 41.42004 18.18773 36061 ft 391 kts 321°
2026-05-07 19:07 41.46783 18.15400 36050 ft 391 kts 321°
2026-05-07 19:07 41.51494 18.11861 36049 ft 384 kts 316°
2026-05-07 19:08 41.55947 18.07922 36049 ft 383 kts 316°
2026-05-07 19:08 41.60378 18.03932 36061 ft 387 kts 316°
2026-05-07 19:09 41.64878 17.99925 36051 ft 389 kts 316°
2026-05-07 19:09 41.69387 17.95905 36049 ft 389 kts 316°
2026-05-07 19:10 41.73891 17.91869 36043 ft 389 kts 316°
2026-05-07 19:10 41.78400 17.87840 36040 ft 390 kts 316°
2026-05-07 19:11 41.82908 17.83819 36064 ft 390 kts 317°
2026-05-07 19:11 41.87465 17.79762 36048 ft 393 kts 317°
2026-05-07 19:12 41.92045 17.75707 36045 ft 397 kts 320°
2026-05-07 19:12 41.96919 17.72145 36051 ft 401 kts 322°
2026-05-07 19:13 42.01856 17.68617 36044 ft 401 kts 322°
2026-05-07 19:13 42.06788 17.65101 36065 ft 402 kts 322°
2026-05-07 19:14 42.11737 17.61533 36047 ft 404 kts 322°
2026-05-07 19:14 42.16656 17.57972 36040 ft 404 kts 322°
2026-05-07 19:15 42.21600 17.54385 36041 ft 403 kts 322°
2026-05-07 19:15 42.26537 17.50782 36042 ft 403 kts 322°
2026-05-07 19:16 42.31500 17.47152 36054 ft 409 kts 323°
2026-05-07 19:16 42.36515 17.43498 36044 ft 409 kts 323°
2026-05-07 19:17 42.41524 17.39837 36044 ft 409 kts 323°
2026-05-07 19:17 42.46535 17.36170 36051 ft 409 kts 322°
2026-05-07 19:18 42.51520 17.32522 36065 ft 411 kts 323°
2026-05-07 19:18 42.56626 17.28756 36049 ft 417 kts 323°
2026-05-07 19:19 42.61693 17.25023 36046 ft 417 kts 323°
2026-05-07 19:19 42.66790 17.21259 36045 ft 417 kts 323°
2026-05-07 19:20 42.71896 17.17490 36042 ft 417 kts 323°
2026-05-07 19:20 42.77023 17.13703 36049 ft 421 kts 323°
2026-05-07 19:21 42.82171 17.09887 36047 ft 420 kts 323°
2026-05-07 19:21 42.87304 17.06066 36050 ft 420 kts 323°
2026-05-07 19:22 42.92444 17.02238 36055 ft 422 kts 323°
2026-05-07 19:22 42.97601 16.98393 36059 ft 423 kts 324°
2026-05-07 19:23 43.02777 16.94526 36059 ft 424 kts 323°
2026-05-07 19:23 43.07919 16.90668 36053 ft 424 kts 323°
2026-05-07 19:24 43.13126 16.86750 36059 ft 424 kts 324°
2026-05-07 19:24 43.18270 16.82893 36070 ft 426 kts 324°
2026-05-07 19:25 43.23480 16.78968 36060 ft 428 kts 324°
2026-05-07 19:25 43.28697 16.75028 36055 ft 427 kts 324°
2026-05-07 19:26 43.33911 16.71084 36059 ft 427 kts 324°
2026-05-07 19:26 43.39111 16.67138 36080 ft 428 kts 324°
2026-05-07 19:27 43.44343 16.63165 36065 ft 430 kts 324°
2026-05-07 19:27 43.49581 16.59182 36074 ft 430 kts 324°
2026-05-07 19:28 43.54812 16.55186 36078 ft 430 kts 324°
2026-05-07 19:28 43.60043 16.51172 36065 ft 430 kts 324°
2026-05-07 19:29 43.65274 16.47160 36067 ft 430 kts 324°
2026-05-07 19:29 43.70509 16.43149 36064 ft 430 kts 324°
2026-05-07 19:30 43.75744 16.39141 36064 ft 430 kts 324°
2026-05-07 19:30 43.80979 16.35112 36064 ft 430 kts 324°
2026-05-07 19:31 43.86176 16.31092 36071 ft 431 kts 323°
2026-05-07 19:31 43.91400 16.27014 36061 ft 431 kts 324°
2026-05-07 19:32 43.96632 16.22959 36053 ft 431 kts 324°
2026-05-07 19:32 44.01853 16.18893 36051 ft 430 kts 324°
2026-05-07 19:33 44.07093 16.14800 36057 ft 433 kts 324°
2026-05-07 19:33 44.12350 16.10687 36067 ft 434 kts 324°
2026-05-07 19:34 44.17624 16.06563 36060 ft 435 kts 324°
2026-05-07 19:34 44.22897 16.02439 36056 ft 434 kts 324°
2026-05-07 19:35 44.28157 15.98310 36057 ft 435 kts 324°
2026-05-07 19:35 44.33450 15.94156 36049 ft 436 kts 324°
2026-05-07 19:36 44.38721 15.89990 36081 ft 436 kts 324°
2026-05-07 19:36 44.44012 15.85835 36054 ft 436 kts 324°
2026-05-07 19:37 44.49301 15.81649 36056 ft 436 kts 324°
2026-05-07 19:37 44.54542 15.77483 36043 ft 436 kts 324°
2026-05-07 19:38 44.59829 15.73275 36043 ft 437 kts 324°
2026-05-07 19:38 44.65115 15.69073 36036 ft 436 kts 324°
2026-05-07 19:39 44.70396 15.64865 36059 ft 436 kts 323°
2026-05-07 19:39 44.74791 15.61366 36029 ft 437 kts 323°
2026-05-07 19:40 44.80993 15.56428 36020 ft 438 kts 323°
2026-05-07 19:40 44.86277 15.52198 36020 ft 438 kts 323°
2026-05-07 19:41 44.91535 15.47970 36009 ft 437 kts 323°
2026-05-07 19:41 44.96832 15.43702 36019 ft 438 kts 323°
2026-05-07 19:42 45.02121 15.39431 36009 ft 437 kts 323°
2026-05-07 19:42 45.06544 15.35847 36000 ft 437 kts 323°
2026-05-07 19:43 45.12681 15.30865 35999 ft 437 kts 323°
2026-05-07 19:43 45.17957 15.26572 35998 ft 438 kts 323°
2026-05-07 19:44 45.23244 15.22265 35994 ft 438 kts 323°
2026-05-07 19:44 45.28493 15.17978 35991 ft 438 kts 323°
2026-05-07 19:45 45.33794 15.13626 35994 ft 437 kts 322°
2026-05-07 19:45 45.39065 15.09284 35994 ft 438 kts 323°
2026-05-07 19:46 45.44322 15.04981 35992 ft 438 kts 323°
2026-05-07 19:46 45.49617 15.00660 35979 ft 440 kts 324°
2026-05-07 19:47 45.54206 14.97325 35982 ft 442 kts 326°
2026-05-07 19:47 45.59658 14.93397 36008 ft 441 kts 326°
2026-05-07 19:48 45.65142 14.89439 35978 ft 441 kts 326°
2026-05-07 19:48 45.70623 14.85474 35972 ft 441 kts 326°
2026-05-07 19:49 45.76083 14.81505 35970 ft 440 kts 325°
2026-05-07 19:49 45.81546 14.77509 35960 ft 441 kts 326°
2026-05-07 19:50 45.87018 14.73541 35946 ft 441 kts 326°
2026-05-07 19:50 45.92488 14.69551 35967 ft 441 kts 325°
2026-05-07 19:51 45.97962 14.65546 35972 ft 441 kts 326°
2026-05-07 19:51 46.03431 14.61537 35997 ft 442 kts 326°
2026-05-07 19:52 46.08914 14.57503 36004 ft 443 kts 326°
2026-05-07 19:52 46.14364 14.53485 36023 ft 442 kts 326°
2026-05-07 19:53 46.19837 14.49429 36024 ft 442 kts 326°
2026-05-07 19:53 46.25322 14.45372 36031 ft 442 kts 326°
2026-05-07 19:54 46.30799 14.41324 36027 ft 442 kts 326°
2026-05-07 19:54 46.36263 14.37235 36003 ft 441 kts 326°
2026-05-07 19:55 46.41724 14.33144 35986 ft 442 kts 326°
2026-05-07 19:55 46.47148 14.29085 36018 ft 442 kts 326°
2026-05-07 19:56 46.52633 14.24982 36030 ft 444 kts 326°
2026-05-07 19:56 46.58122 14.20868 36055 ft 443 kts 327°
2026-05-07 19:57 46.63603 14.16749 36044 ft 443 kts 327°
2026-05-07 19:57 46.69075 14.12629 36023 ft 444 kts 327°
2026-05-07 19:58 46.74556 14.08500 36012 ft 443 kts 327°
2026-05-07 19:58 46.80034 14.04348 35946 ft 444 kts 327°
2026-05-07 19:59 46.85520 14.00191 35944 ft 444 kts 327°
2026-05-07 19:59 46.90979 13.96035 35966 ft 441 kts 327°
2026-05-07 20:00 46.96391 13.91903 35979 ft 442 kts 327°
2026-05-07 20:00 47.01851 13.87736 35977 ft 443 kts 327°
2026-05-07 20:01 47.07332 13.83548 35987 ft 443 kts 327°
2026-05-07 20:01 47.12794 13.79354 35985 ft 443 kts 327°
2026-05-07 20:02 47.18269 13.75144 35999 ft 443 kts 327°
2026-05-07 20:02 47.23734 13.70899 36027 ft 445 kts 327°
2026-05-07 20:03 47.29270 13.66825 36008 ft 446 kts 330°
2026-05-07 20:03 47.34903 13.62963 36023 ft 445 kts 330°
2026-05-07 20:04 47.40527 13.59117 36018 ft 446 kts 330°
2026-05-07 20:04 47.46162 13.55287 36021 ft 447 kts 330°
2026-05-07 20:05 47.51806 13.51413 36005 ft 446 kts 330°
2026-05-07 20:05 47.57390 13.47557 36023 ft 446 kts 330°
2026-05-07 20:06 47.63015 13.43663 36024 ft 446 kts 330°
2026-05-07 20:06 47.68646 13.39759 36027 ft 447 kts 330°
2026-05-07 20:07 47.74288 13.35807 36025 ft 448 kts 330°
2026-05-07 20:07 47.79923 13.31876 36020 ft 448 kts 331°
2026-05-07 20:08 47.85569 13.27946 36014 ft 448 kts 331°
2026-05-07 20:08 47.91216 13.23998 36018 ft 448 kts 331°
2026-05-07 20:09 47.96847 13.20033 36018 ft 446 kts 331°
2026-05-07 20:10 48.05261 13.14096 36018 ft 446 kts 331°
2026-05-07 20:10 48.10872 13.10162 36013 ft 446 kts 331°
2026-05-07 20:11 48.16489 13.06207 36019 ft 445 kts 331°
2026-05-07 20:11 48.22032 13.02204 36012 ft 443 kts 327°
2026-05-07 20:12 48.26987 12.96823 36022 ft 438 kts 317°
2026-05-07 20:12 48.29357 12.93897 35388 ft 439 kts 320°
2026-05-07 20:12 48.31713 12.90984 35726 ft 439 kts 320°
2026-05-07 20:12 48.34084 12.88066 35907 ft 443 kts 320°
2026-05-07 20:13 48.36481 12.85121 35984 ft 449 kts 320°
2026-05-07 20:13 48.41391 12.79081 36017 ft 462 kts 320°
2026-05-07 20:14 48.46438 12.72867 36024 ft 474 kts 320°
2026-05-07 20:14 48.51612 12.66486 36043 ft 486 kts 320°
2026-05-07 20:15 48.56903 12.59945 36049 ft 498 kts 320°
2026-05-07 20:15 48.62317 12.53230 36046 ft 506 kts 320°
2026-05-07 20:16 48.67762 12.46451 36036 ft 506 kts 320°
2026-05-07 20:16 48.73193 12.39671 36028 ft 505 kts 320°
2026-05-07 20:17 48.78581 12.32919 36015 ft 505 kts 320°
2026-05-07 20:17 48.83986 12.26131 36034 ft 503 kts 320°
2026-05-07 20:18 48.89388 12.19323 36035 ft 504 kts 320°
2026-05-07 20:18 48.94783 12.12511 36028 ft 505 kts 320°
2026-05-07 20:19 49.00178 12.05681 36011 ft 503 kts 320°
2026-05-07 20:19 49.05570 11.98837 36007 ft 503 kts 320°
2026-05-07 20:20 49.10941 11.91995 36002 ft 504 kts 320°
2026-05-07 20:20 49.16314 11.85122 36000 ft 504 kts 320°
2026-05-07 20:21 49.21688 11.78241 36004 ft 503 kts 320°
2026-05-07 20:21 49.27050 11.71353 36006 ft 503 kts 320°
2026-05-07 20:22 49.32402 11.64453 36008 ft 503 kts 319°
2026-05-07 20:22 49.37725 11.57575 36003 ft 503 kts 319°
2026-05-07 20:23 49.43071 11.50630 36003 ft 503 kts 319°
2026-05-07 20:23 49.48396 11.43688 36003 ft 503 kts 319°
2026-05-07 20:24 49.53726 11.36724 36003 ft 503 kts 319°
2026-05-07 20:24 49.59058 11.29749 36000 ft 501 kts 319°
2026-05-07 20:25 49.64364 11.22782 36001 ft 501 kts 319°
2026-05-07 20:25 49.69671 11.15815 36003 ft 501 kts 319°
2026-05-07 20:26 49.74976 11.08825 36001 ft 501 kts 319°
2026-05-07 20:26 49.80261 11.01819 36002 ft 501 kts 319°
2026-05-07 20:27 49.85557 10.94780 36001 ft 501 kts 319°
2026-05-07 20:27 49.90811 10.87762 36001 ft 501 kts 319°
2026-05-07 20:28 49.96083 10.80717 36000 ft 500 kts 319°
2026-05-07 20:28 50.01362 10.73656 36002 ft 500 kts 319°
2026-05-07 20:29 50.06620 10.66596 36005 ft 499 kts 319°
2026-05-07 20:29 50.11883 10.59513 36003 ft 500 kts 319°
2026-05-07 20:30 50.17137 10.52434 36003 ft 499 kts 319°
2026-05-07 20:30 50.22378 10.45322 36002 ft 499 kts 319°
2026-05-07 20:31 50.27612 10.38201 36001 ft 498 kts 319°
2026-05-07 20:31 50.31957 10.32285 35994 ft 498 kts 319°
2026-05-07 20:32 50.37647 10.23416 35996 ft 495 kts 310°
2026-05-07 20:32 50.41393 10.16541 36002 ft 498 kts 310°
2026-05-07 20:33 50.45943 10.08194 36008 ft 506 kts 310°
2026-05-07 20:33 50.50516 9.99791 36003 ft 506 kts 310°
2026-05-07 20:34 50.55070 9.91382 36000 ft 504 kts 310°
2026-05-07 20:34 50.59615 9.82971 36002 ft 504 kts 310°
2026-05-07 20:35 50.64283 9.74761 35999 ft 505 kts 313°
2026-05-07 20:35 50.69126 9.66754 36000 ft 504 kts 313°
2026-05-07 20:36 50.73916 9.58751 36001 ft 503 kts 313°
2026-05-07 20:36 50.78705 9.50696 36002 ft 503 kts 313°
2026-05-07 20:37 50.83493 9.42612 36001 ft 503 kts 313°
2026-05-07 20:37 50.88274 9.34525 36002 ft 502 kts 313°
2026-05-07 20:38 50.93040 9.26416 36000 ft 502 kts 313°
2026-05-07 20:38 50.97800 9.18309 36002 ft 501 kts 313°
2026-05-07 20:39 51.02536 9.10212 36002 ft 501 kts 312°
2026-05-07 20:39 51.07275 9.02073 36001 ft 501 kts 312°
2026-05-07 20:40 51.11973 8.93996 36002 ft 501 kts 312°
2026-05-07 20:40 51.16698 8.85841 36001 ft 501 kts 312°
2026-05-07 20:41 51.21412 8.77668 36001 ft 501 kts 312°
2026-05-07 20:41 51.26124 8.69475 36001 ft 500 kts 312°
2026-05-07 20:42 51.30828 8.61288 36001 ft 500 kts 312°
2026-05-07 20:42 51.35525 8.53073 36001 ft 500 kts 312°
2026-05-07 20:43 51.40201 8.44865 36002 ft 498 kts 312°
2026-05-07 20:43 51.44864 8.36642 36001 ft 498 kts 311°
2026-05-07 20:44 51.49528 8.28413 36001 ft 498 kts 312°
2026-05-07 20:44 51.54149 8.20232 36001 ft 498 kts 311°
2026-05-07 20:45 51.58790 8.11972 36002 ft 498 kts 311°
2026-05-07 20:45 51.63431 8.03695 36002 ft 498 kts 311°
2026-05-07 20:46 51.68078 7.95387 36003 ft 498 kts 311°
2026-05-07 20:46 51.72708 7.87071 36002 ft 498 kts 311°
2026-05-07 20:47 51.77336 7.78727 36000 ft 497 kts 311°
2026-05-07 20:47 51.81962 7.70358 35676 ft 500 kts 311°
2026-05-07 20:47 51.84257 7.66210 35366 ft 492 kts 311°
2026-05-07 20:48 51.86540 7.62075 35095 ft 492 kts 311°
2026-05-07 20:48 51.88811 7.57946 34837 ft 489 kts 311°
2026-05-07 20:48 51.91038 7.53888 34420 ft 492 kts 311°
2026-05-07 20:48 51.93325 7.49707 33846 ft 500 kts 311°
2026-05-07 20:49 51.95629 7.45495 33237 ft 495 kts 311°
2026-05-07 20:49 51.97893 7.41358 32613 ft 487 kts 311°
2026-05-07 20:49 52.00127 7.37262 31972 ft 480 kts 311°
2026-05-07 20:49 52.02315 7.33238 31339 ft 474 kts 311°
2026-05-07 20:50 52.04489 7.29236 30728 ft 467 kts 311°
2026-05-07 20:50 52.06615 7.25312 30155 ft 459 kts 311°
2026-05-07 20:50 52.08707 7.21451 29565 ft 452 kts 311°
2026-05-07 20:50 52.10779 7.17636 28982 ft 445 kts 311°
2026-05-07 20:51 52.12813 7.13875 28415 ft 439 kts 311°
2026-05-07 20:51 52.14809 7.10172 27870 ft 432 kts 311°
2026-05-07 20:51 52.16783 7.06513 27349 ft 425 kts 311°
2026-05-07 20:51 52.18722 7.02910 26803 ft 420 kts 311°
2026-05-07 20:52 52.20607 6.99400 26283 ft 414 kts 311°
2026-05-07 20:52 52.22450 6.95850 26027 ft 408 kts 309°
2026-05-07 20:52 52.24268 6.92229 25976 ft 407 kts 309°
2026-05-07 20:52 52.26058 6.88651 25979 ft 407 kts 309°
2026-05-07 20:53 52.27844 6.85077 25990 ft 407 kts 309°
2026-05-07 20:53 52.29629 6.81500 25997 ft 407 kts 309°
2026-05-07 20:53 52.31267 6.77735 25923 ft 406 kts 297°
2026-05-07 20:53 52.32241 6.73445 25734 ft 404 kts 285°
2026-05-07 20:54 52.32950 6.69001 25506 ft 402 kts 284°
2026-05-07 20:54 52.33640 6.64568 25260 ft 400 kts 284°
2026-05-07 20:54 52.34345 6.60179 25011 ft 398 kts 284°
2026-05-07 20:54 52.35054 6.55862 24762 ft 397 kts 285°
2026-05-07 20:55 52.35775 6.51521 24488 ft 395 kts 285°
2026-05-07 20:55 52.36491 6.47208 24065 ft 390 kts 285°
2026-05-07 20:55 52.37198 6.42937 23572 ft 387 kts 285°
2026-05-07 20:55 52.37898 6.38694 23064 ft 385 kts 284°
2026-05-07 20:56 52.38592 6.34478 22572 ft 382 kts 284°
2026-05-07 20:56 52.39280 6.30286 22059 ft 380 kts 284°
2026-05-07 20:56 52.39964 6.26108 21529 ft 379 kts 284°
2026-05-07 20:56 52.40647 6.21944 21011 ft 377 kts 284°
2026-05-07 20:57 52.41325 6.17811 20520 ft 375 kts 284°
2026-05-07 20:57 52.41995 6.13708 20042 ft 372 kts 284°
2026-05-07 20:57 52.42659 6.09627 19567 ft 370 kts 284°
2026-05-07 20:57 52.43321 6.05562 19103 ft 368 kts 284°
2026-05-07 20:58 52.43975 6.01524 18659 ft 366 kts 284°
2026-05-07 20:58 52.44627 5.97504 18221 ft 364 kts 284°
2026-05-07 20:58 52.45273 5.93513 17787 ft 362 kts 284°
2026-05-07 20:58 52.45920 5.89522 17354 ft 361 kts 284°
2026-05-07 20:59 52.46559 5.85566 16937 ft 359 kts 284°
2026-05-07 20:59 52.47193 5.81619 16526 ft 357 kts 284°
2026-05-07 20:59 52.47817 5.77697 16117 ft 355 kts 284°
2026-05-07 20:59 52.48440 5.73789 15708 ft 353 kts 284°
2026-05-07 21:00 52.49060 5.69906 15311 ft 351 kts 284°
2026-05-07 21:00 52.49672 5.66053 14933 ft 348 kts 284°
2026-05-07 21:00 52.50279 5.62217 14540 ft 346 kts 284°
2026-05-07 21:00 52.50738 5.58408 14134 ft 344 kts 272°
2026-05-07 21:01 52.50405 5.54594 13782 ft 336 kts 249°
2026-05-07 21:01 52.49312 5.51301 13582 ft 323 kts 237°
2026-05-07 21:01 52.48099 5.48265 13391 ft 313 kts 237°
2026-05-07 21:01 52.46915 5.45250 13153 ft 311 kts 237°
2026-05-07 21:02 52.45781 5.42283 12912 ft 311 kts 238°
2026-05-07 21:02 52.44631 5.39225 12660 ft 310 kts 238°
2026-05-07 21:02 52.43523 5.36256 12415 ft 309 kts 238°
2026-05-07 21:02 52.42410 5.33261 12196 ft 307 kts 238°
2026-05-07 21:03 52.41301 5.30273 11994 ft 306 kts 238°
2026-05-07 21:03 52.40195 5.27295 11798 ft 305 kts 238°
2026-05-07 21:03 52.39093 5.24335 11603 ft 304 kts 238°
2026-05-07 21:03 52.37994 5.21385 11409 ft 303 kts 238°
2026-05-07 21:04 52.36896 5.18440 11217 ft 302 kts 238°
2026-05-07 21:04 52.35801 5.15507 11025 ft 301 kts 238°
2026-05-07 21:04 52.34713 5.12591 10834 ft 300 kts 238°
2026-05-07 21:04 52.33719 5.09597 10631 ft 299 kts 249°
2026-05-07 21:05 52.33325 5.06273 10436 ft 299 kts 267°
2026-05-07 21:05 52.33310 5.02880 10255 ft 298 kts 270°
2026-05-07 21:05 52.33331 4.99499 10067 ft 297 kts 270°
2026-05-07 21:05 52.33338 4.96121 9968 ft 296 kts 269°
2026-05-07 21:06 52.33329 4.92761 9967 ft 296 kts 269°
2026-05-07 21:06 52.33316 4.89388 9982 ft 296 kts 269°
2026-05-07 21:06 52.33296 4.86023 9993 ft 296 kts 269°
2026-05-07 21:06 52.33273 4.82650 9998 ft 296 kts 269°
2026-05-07 21:07 52.33246 4.79275 10000 ft 296 kts 269°
2026-05-07 21:07 52.33217 4.75956 10000 ft 296 kts 269°
2026-05-07 21:07 52.33185 4.72545 10001 ft 296 kts 269°
2026-05-07 21:07 52.33153 4.69181 10001 ft 296 kts 269°
2026-05-07 21:08 52.33119 4.65808 9992 ft 293 kts 269°
2026-05-07 21:08 52.33086 4.62521 9489 ft 295 kts 269°
2026-05-07 21:08 52.33053 4.59152 8997 ft 297 kts 269°
2026-05-07 21:08 52.33018 4.55792 8610 ft 294 kts 269°
2026-05-07 21:09 52.32982 4.52463 8193 ft 292 kts 269°
2026-05-07 21:09 52.32945 4.49147 7809 ft 290 kts 269°
2026-05-07 21:09 52.32908 4.45858 7405 ft 288 kts 268°
2026-05-07 21:09 52.32831 4.42605 7049 ft 285 kts 262°
2026-05-07 21:10 52.32184 4.39641 6836 ft 273 kts 235°
2026-05-07 21:10 52.30815 4.37631 6686 ft 261 kts 207°
2026-05-07 21:10 52.29112 4.36861 6556 ft 250 kts 186°
2026-05-07 21:10 52.27392 4.36684 6247 ft 247 kts 183°
2026-05-07 21:11 52.25672 4.36561 5879 ft 247 kts 181°
2026-05-07 21:11 52.24015 4.37090 5498 ft 247 kts 152°
2026-05-07 21:11 52.22082 4.41524 4876 ft 242 kts 114°
2026-05-07 21:12 52.21425 4.44041 4561 ft 240 kts 114°
2026-05-07 21:12 52.20878 4.46602 4270 ft 237 kts 100°
2026-05-07 21:12 52.20767 4.49184 4103 ft 226 kts 92°
2026-05-07 21:12 52.20869 4.51715 3917 ft 216 kts 78°
2026-05-07 21:13 52.21336 4.53928 3844 ft 195 kts 63°
2026-05-07 21:13 52.22017 4.55719 3721 ft 177 kts 57°
2026-05-07 21:13 52.22646 4.57396 3441 ft 169 kts 59°
2026-05-07 21:13 52.23218 4.58904 3102 ft 150 kts 58°
2026-05-07 21:14 52.23748 4.60328 2614 ft 145 kts 59°
2026-05-07 21:14 52.24267 4.61710 2122 ft 141 kts 57°
2026-05-07 21:14 52.24622 4.62615 1790 ft 140 kts 57°
2026-05-07 21:14 52.25315 4.64358 1277 ft 137 kts 57°
2026-05-07 21:15 52.25821 4.65681 1121 ft 138 kts 60°
2026-05-07 21:15 52.26325 4.67002 970 ft 137 kts 57°
2026-05-07 21:15 52.26682 4.67875 861 ft 137 kts 57°
2026-05-07 21:15 52.27180 4.69195 680 ft 136 kts 59°
2026-05-07 21:16 52.27669 4.70516 502 ft 136 kts 58°
2026-05-07 21:16 52.28170 4.71799 317 ft 135 kts 58°
2026-05-07 21:16 52.28674 4.73095 126 ft 135 kts 58°
2026-05-07 21:16 52.29166 4.74387 8 ft 129 kts 58°
2026-05-07 21:17 52.29573 4.75451 3 ft 81 kts 58°
2026-05-07 21:17 52.29784 4.76000 2 ft 46 kts 58°
2026-05-07 21:17 52.29941 4.76394 2 ft 26 kts 52°
2026-05-07 21:17 52.30042 4.76552 4 ft 15 kts 26°
2026-05-07 21:18 52.30145 4.76639 4 ft 18 kts 28°
2026-05-07 21:18 52.30258 4.76738 4 ft 18 kts 28°
2026-05-07 21:18 52.30335 4.76883 4 ft 13 kts 59°
2026-05-07 21:18 52.30389 4.77023 4 ft 16 kts 57°
2026-05-07 21:19 52.30451 4.77184 4 ft 18 kts 58°
2026-05-07 21:19 52.30521 4.77365 4 ft 20 kts 58°
2026-05-07 21:19 52.30593 4.77539 4 ft 19 kts 38°
2026-05-07 21:19 52.30719 4.77592 4 ft 13 kts
2026-05-07 21:20 52.30794 4.77597 4 ft 8 kts
2026-05-07 21:20 52.30832 4.77524 4 ft 11 kts 276°
2026-05-07 21:20 52.30836 4.77418 4 ft 4 kts 273°
2026-05-07 21:20 52.30848 4.77369 4 ft 6 kts 337°
2026-05-07 21:21 52.30878 4.77365 4 ft 4 kts
2026-05-07 21:21 52.30894 4.77367 4 ft 1 kts
2026-05-07 21:21 52.30895 4.77367 4 ft 0 kts